Weather History for Lebanon, NH

Change the Weather History Date:

Thursday, December 26, 2013

  Actual Average Record
Temperature  
Mean Temperature 23 °F -  
Max Temperature 27 °F 29 °F 60 °F (1982)
Min Temperature 16 °F 9 °F -27 °F (1980)
Degree Days  
Heating Degree Days 42    
Moisture  
Dew Point 15 °F    
Average Humidity 77    
Maximum Humidity 89    
Minimum Humidity 48    
Precipitation  
Precipitation 0.05 in - - ()
Sea Level Pressure  
Sea Level Pressure 30.22 in    
Wind  
Wind Speed 2 mph (ESE)    
Max Wind Speed 8 mph    
Max Gust Speed -    
Visibility 7 miles    
Events Snow    
Averages and records for this station are not official NWS values.
T = Trace of Precipitation, MM = Missing Value Source: NWS Daily Summary

Daily Weather History Graph

Daily Weather History Graph

Search for Another Location

Airport:

Trip Planner

Search our weather history database for the weather conditions in past years. The results will help you decide how hot, cold, wet, or windy it might be!

Date:

Astronomy

Dec. 26, 2013 Rise Set
Actual Time 7:21 AM EST 4:18 PM EST
Civil Twilight 6:48 AM EST 4:51 PM EST
Nautical Twilight 6:12 AM EST 5:27 PM EST
Astronomical Twilight 5:37 AM EST 6:02 PM EST
Moon 12:38 AM EST (12/26) 11:59 AM EST (12/26)
Length of Visible Light 10h 02m
Length of Day
8h 56m
Last Quarter, 38% of the Moon is Illuminated
Dec 26
Last Quarter
Jan 1
New
Jan 7
First Quarter
Jan 15
Full
Jan 24
Last Quarter

Hourly Weather History & Observations

Time (EST) Temp. Windchill Dew Point Humidity Pressure Visibility Wind Dir Wind Speed Gust Speed Precip Events Conditions
12:53 AM 19.0 °F - 7.0 °F 59% 30.44 in 10.0 mi Calm Calm - N/A   Overcast
1:53 AM 19.9 °F 12.1 °F 3.0 °F 48% 30.43 in 10.0 mi SSE 5.8 mph - N/A   Overcast
2:53 AM 19.9 °F 10.1 °F 3.0 °F 48% 30.43 in 10.0 mi SSE 8.1 mph - N/A   Overcast
3:51 AM 19.4 °F 9.5 °F 8.6 °F 63% 30.36 in 3.0 mi South 8.1 mph - 0.00 in Snow Light Snow
3:53 AM 19.9 °F 13.4 °F 9.0 °F 62% 30.41 in 3.0 mi SSE 4.6 mph - 0.00 in Snow Light Snow
4:09 AM 19.0 °F 12.3 °F 10.9 °F 71% 30.36 in 3.0 mi SSE 4.6 mph - 0.00 in Snow Light Snow
4:27 AM 19.0 °F - 12.0 °F 74% 30.35 in 1.8 mi Calm Calm - 0.00 in Snow Light Snow
4:43 AM 19.0 °F - 12.9 °F 77% 30.34 in 3.0 mi Calm Calm - 0.00 in Snow Light Snow
4:53 AM 19.0 °F - 12.9 °F 77% 30.38 in 8.0 mi Calm Calm - 0.00 in   Overcast
5:53 AM 19.0 °F 13.9 °F 10.9 °F 71% 30.36 in 10.0 mi NE 3.5 mph - N/A   Overcast
6:31 AM 19.9 °F - 10.9 °F 68% 30.30 in 10.0 mi Calm Calm - N/A   Overcast
6:53 AM 19.9 °F - 10.9 °F 68% 30.35 in 10.0 mi Calm Calm - N/A   Overcast
7:53 AM 21.0 °F - 12.9 °F 71% 30.33 in 10.0 mi Calm Calm - N/A   Overcast
8:45 AM 21.0 °F - 12.9 °F 71% 30.27 in 1.8 mi Calm Calm - 0.00 in Snow Light Snow
8:53 AM 21.0 °F - 14.0 °F 74% 30.32 in 1.2 mi Calm Calm - 0.00 in Snow Light Snow
9:53 AM 21.0 °F - 16.0 °F 81% 30.29 in 1.2 mi Calm Calm - 0.01 in Snow Light Snow
10:31 AM 21.0 °F - 16.0 °F 81% 30.22 in 1.2 mi Calm Calm - 0.01 in Snow Light Snow
10:44 AM 21.9 °F - 17.1 °F 82% 30.21 in 0.8 mi Calm Calm - 0.01 in Snow Light Snow
10:53 AM 21.9 °F - 17.1 °F 82% 30.24 in 0.8 mi Calm Calm - 0.02 in Snow Light Snow
11:25 AM 21.9 °F - 18.0 °F 85% 30.16 in 1.0 mi Calm Calm - 0.01 in Snow Light Snow
11:53 AM 23.0 °F - 18.0 °F 81% 30.19 in 1.0 mi Calm Calm - 0.02 in Snow Light Snow
12:28 PM 24.1 °F 18.2 °F 19.0 °F 81% 30.12 in 2.5 mi SSE 4.6 mph - 0.00 in Snow Light Snow
12:40 PM 24.1 °F 18.2 °F 18.0 °F 77% 30.10 in 4.0 mi South 4.6 mph - 0.00 in Snow Light Snow
12:53 PM 25.0 °F - 19.0 °F 78% 30.14 in 10.0 mi Calm Calm - 0.00 in   Mostly Cloudy
1:02 PM 25.0 °F 19.3 °F 19.0 °F 78% 30.10 in 10.0 mi NE 4.6 mph - N/A   Mostly Cloudy
1:24 PM 25.0 °F 19.3 °F 19.0 °F 78% 30.08 in 10.0 mi NNE 4.6 mph - N/A   Overcast
1:53 PM 26.1 °F 21.9 °F 19.9 °F 78% 30.12 in 10.0 mi North 3.5 mph - N/A   Mostly Cloudy
2:07 PM 27.0 °F 23.0 °F 19.9 °F 75% 30.07 in 10.0 mi Variable 3.5 mph - N/A   Overcast
2:53 PM 27.0 °F 23.0 °F 19.9 °F 75% 30.11 in 10.0 mi Variable 3.5 mph - N/A   Mostly Cloudy
3:00 PM 27.0 °F - 19.9 °F 75% 30.06 in 10.0 mi Calm Calm - N/A   Overcast
3:53 PM 27.0 °F - 21.0 °F 78% 30.12 in 4.0 mi Calm Calm - 0.00 in Snow Light Snow
4:53 PM 26.1 °F - 21.9 °F 84% 30.12 in 9.0 mi Calm Calm - 0.00 in   Overcast
5:12 PM 24.1 °F - 21.0 °F 88% 30.09 in 6.0 mi Calm Calm - 0.00 in Snow Light Snow
5:22 PM 21.9 °F - 18.0 °F 85% 30.09 in 9.0 mi Calm Calm - 0.00 in   Scattered Clouds
5:53 PM 21.9 °F 15.7 °F 19.0 °F 89% 30.14 in 10.0 mi South 4.6 mph - 0.00 in   Mostly Cloudy
6:53 PM 19.0 °F - 15.1 °F 85% 30.17 in 9.0 mi Calm Calm - N/A   Partly Cloudy
7:53 PM 19.9 °F 14.9 °F 17.1 °F 89% 30.19 in 10.0 mi Variable 3.5 mph - N/A   Overcast
8:17 PM 21.0 °F - 18.0 °F 88% 30.15 in 10.0 mi Calm Calm - N/A   Overcast
8:53 PM 21.9 °F 15.7 °F 18.0 °F 85% 30.19 in 10.0 mi NE 4.6 mph - N/A   Overcast
9:09 PM 21.0 °F - 18.0 °F 88% 30.14 in 10.0 mi Calm Calm - N/A   Overcast
9:53 PM 21.0 °F 16.2 °F 18.0 °F 88% 30.19 in 9.0 mi NE 3.5 mph - N/A   Overcast
10:53 PM 19.0 °F - 16.0 °F 88% 30.19 in 9.0 mi Calm Calm - N/A   Scattered Clouds
11:53 PM 16.0 °F - 12.0 °F 84% 30.19 in 10.0 mi Calm Calm - N/A   Mostly Cloudy